[[{"header":{"parameterUnit":"m.s-1","parameterCategory":2,"la1":30.2991,"la2":30.254,"lo1":-89.0895,"lo2":-89.0444,"dy":0.0017,"dx":0.0017,"nx":28,"ny":28,"refTime":"2025-04-14T03:00:00:Z","depth":"0","parameterNumber":2,"parameterNumberName":"U-component_of_CURRENTS"},"data":[0,0,0,0,0,0,0,0,0,0,0,0,0,0,0,0,0,0,0,0,0,0,0,0,0,0,0,0,0,0,0,0,0,0,0,0,0,0,0,0,0,0,0,0,0,0,0,0,0,0,0,0,0,0,0,0,0,0,0.2806,0.2807,0,0.2854,0.2854,0.2854,0.2852,0.2851,0.2851,0.2851,0.2846,0.2846,0.2846,0,0,0,0,0,0,0,0,0,0,0,0,0,0.2727,0.2728,0.2806,0.2807,0.2808,0.2854,0.2854,0.2854,0.2852,0.2851,0.2851,0.2851,0.2846,0.2846,0.2846,0,0,0,0,0,0,0,0,0,0,0,0,0,0.2762,0.2729,0.2806,0.2816,0.2818,0.2854,0.2854,0.2854,0.2852,0.2851,0.2851,0.2851,0.2846,0.2846,0.2846,0.2853,0,0,0.2846,0.2846,0,0,0,0,0,0,0,0,0.276,0.2764,0.2813,0.2815,0.2817,0.2851,0.2825,0.2853,0.2852,0.2833,0.2851,0.2851,0.2846,0.2846,0.2849,0.2853,0.2853,0.2846,0.2846,0.2846,0.2846,0,0,0,0,0,0,0,0.2758,0.2763,0.282,0.2815,0.2817,0.2824,0.2828,0.283,0.2836,0.2835,0.2836,0.285,0.2846,0.2849,0.2849,0.2853,0.2846,0.2846,0.2846,0.2846,0.2895,0.2896,0,0,0,0,0,0,0.2762,0.276,0.2818,0.2822,0.2793,0.2826,0.283,0.2836,0.2837,0.2839,0.285,0.285,0.2849,0.2849,0.2849,0.2888,0.2846,0.2846,0.2846,0.2894,0.2896,0.2897,0,0,0,0,0,0,0.276,0.2766,0.2816,0.2796,0.2804,0.2828,0.2835,0.2838,0.2846,0.285,0.285,0.2857,0.2849,0.2849,0.2865,0.2887,0.2846,0.2846,0.2893,0.2894,0.2896,0.2947,0,0,0,0,0,0,0.2757,0.2765,0.2765,0.2797,0.2805,0.2836,0.2836,0.2839,0.2857,0.2857,0.2856,0.2855,0.2849,0.2865,0.2865,0.2886,0.2846,0.2891,0.2893,0.2896,0.2944,0.2951,0.2956,0,0,0,0,0,0.2754,0.2756,0.2765,0.2772,0.2807,0.2837,0.2842,0.2854,0.2858,0.286,0.2871,0.2855,0.288,0.2866,0.2866,0.2888,0.289,0.2893,0.2895,0.2941,0.2949,0.2956,0,0,0,0,0,0,0.2719,0.2757,0.2767,0.2779,0.2808,0.2839,0.2845,0.2859,0.287,0.2869,0.287,0.287,0.2895,0.2884,0.287,0.291,0.2883,0.2886,0.2918,0.2925,0.2931,0.2947,0.2847,0,0,0,0,0,0.2714,0.2726,0.2765,0.2775,0.279,0.2819,0.2833,0.2845,0.2865,0.2869,0.2874,0.2884,0.2907,0.2909,0.2919,0.2936,0.2966,0.2951,0.2957,0.2962,0.2976,0.3049,0.3064,0.2906,0.2906,0.2906,0,0,0.2704,0.2728,0.2734,0.2769,0.279,0.2817,0.2825,0.2848,0.2873,0.2867,0.2891,0.2905,0.2918,0.2945,0.2954,0.2937,0.3024,0.2966,0.297,0.2981,0.3054,0.307,0.3084,0.2908,0.2908,0.2907,0,0,0.269,0.2712,0.2715,0.2745,0.2785,0.2811,0.2821,0.2856,0.2871,0.2901,0.2915,0.2948,0.2958,0.2986,0.3,0.3046,0.3059,0.3042,0.3081,0.3152,0.3166,0.3179,0.3244,0.3262,0.304,0.304,0.304,0,0.2674,0.2693,0.2721,0.2741,0.2773,0.2812,0.2834,0.2861,0.2897,0.2925,0.2909,0.2985,0.2985,0.3055,0.3069,0.3061,0.3103,0.3051,0.3162,0.3175,0.3187,0.3251,0.327,0.3043,0.3042,0.3042,0.3042,0,0.2668,0.2692,0.2701,0.2744,0.2776,0.2805,0.2857,0.2888,0.2915,0.295,0.3018,0.3039,0.3086,0.3093,0.3092,0.3183,0.3186,0.3167,0.3145,0.3207,0.3269,0.3288,0.3047,0.3046,0.3045,0.3044,0,0,0.2615,0.2682,0.2686,0.2718,0.2786,0.2815,0.2868,0.2936,0.2992,0.3024,0.3101,0.3142,0.3167,0.3186,0.3201,0.3257,0.3372,0.3248,0.3251,0.3317,0.354,0.3522,0.3541,0.3377,0.3381,0.3383,0.3552,0,0.2605,0.264,0.2683,0.2736,0.2767,0.2837,0.2892,0.296,0.3021,0.3101,0.3155,0.3225,0.3199,0.3237,0.3292,0.336,0.3424,0.3328,0.3467,0.3472,0.3451,0.3563,0.3381,0.3514,0.3571,0.3574,0.3576,0,0.2586,0.2618,0.2655,0.2755,0.2776,0.2816,0.2932,0.2991,0.3114,0.3166,0.3251,0.3299,0.3402,0.3362,0.3517,0.3461,0.3506,0.3549,0.3556,0.3535,0.349,0.3461,0.3547,0.348,0.3606,0.3604,0.3601,0,0.2535,0.2608,0.264,0.2671,0.2776,0.2817,0.2885,0.3004,0.3078,0.322,0.3293,0.3408,0.3487,0.3565,0.3644,0.3595,0.3818,0.3754,0.3785,0.3783,0.3654,0.3636,0.3694,0.387,0.387,0.3869,0.3869,0,0.2517,0.2548,0.262,0.2641,0.2703,0.279,0.2878,0.2972,0.3115,0.3228,0.3323,0.3439,0.3545,0.3671,0.3711,0.383,0.3874,0.3831,0.3842,0.3667,0.3648,0.3602,0.3574,0.3875,0.3874,0.3873,0.3872,0,0.2464,0.2508,0.2553,0.2646,0.2678,0.2724,0.2865,0.2945,0.3085,0.3242,0.3296,0.3498,0.3672,0.3774,0.3934,0.3927,0.3932,0.405,0.3839,0.3822,0.3746,0.3727,0.3698,0.3581,0.4107,0.4107,0.4108,0,0.2439,0.2452,0.253,0.2563,0.2606,0.2684,0.2753,0.2906,0.3005,0.3281,0.3363,0.3588,0.3728,0.3962,0.4004,0.4099,0.3986,0.3986,0.3848,0.376,0.3747,0.3606,0.3496,0.37,0.3697,0.3695,0.3693,0,0.2394,0.2416,0.245,0.251,0.2571,0.2645,0.2759,0.2826,0.3038,0.3169,0.3385,0.3524,0.3773,0.3813,0.396,0.3983,0.3794,0.3943,0.3902,0.3496,0.3295,0.3178,0.3576,0.3673,0.3675,0.3677,0.3678,0.3679,0.2347,0.2353,0.2395,0.2452,0.2525,0.2597,0.2622,0.2765,0.2891,0.3076,0.3283,0.3421,0.3591,0.3764,0.3781,0.3716,0.3696,0.3594,0.3602,0.3485,0.3292,0.3662,0.3735,0.3738,0.3739,0.3741,0.3743,0,0.2257,0.2285,0.2344,0.2395,0.2438,0.2508,0.2617,0.2624,0.2715,0.2926,0.3062,0.321,0.3297,0.3424,0.3479,0.3382,0.3187,0.331,0.3047,0.2972,0.3352,0.3252,0.3161,0.3161,0.3162,0.3162,0.3162,0.3162,0.2204,0.2204,0.2239,0.2275,0.2327,0.2327,0.2354,0.2398,0.2499,0.2601,0.2689,0.2824,0.3141,0.3335,0.3285,0.3189,0.2944,0.2822,0.2849,0.3109,0.3133,0.3156,0.3056,0.2925,0.2925,0.2276,0.2272,0.2268]},{"header":{"parameterUnit":"m.s-1","parameterCategory":2,"la1":30.2991,"la2":30.254,"lo1":-89.0895,"lo2":-89.0444,"dy":0.0017,"dx":0.0017,"nx":28,"ny":28,"refTime":"2025-04-14T03:00:00:Z","depth":"0","parameterNumber":3,"parameterNumberName":"V-component_of_CURRENTS"},"data":[0,0,0,0,0,0,0,0,0,0,0,0,0,0,0,0,0,0,0,0,0,0,0,0,0,0,0,0,0,0,0,0,0,0,0,0,0,0,0,0,0,0,0,0,0,0,0,0,0,0,0,0,0,0,0,0,0,0,-0.0306,-0.0307,0,-0.04,-0.0401,-0.0402,-0.0454,-0.0454,-0.0454,-0.0454,-0.0536,-0.0538,-0.054,0,0,0,0,0,0,0,0,0,0,0,0,0,-0.0223,-0.0224,-0.0306,-0.0307,-0.0309,-0.04,-0.0402,-0.0403,-0.0454,-0.0454,-0.0454,-0.0454,-0.0536,-0.0538,-0.054,0,0,0,0,0,0,0,0,0,0,0,0,0,-0.0282,-0.0225,-0.0306,-0.0345,-0.035,-0.04,-0.0402,-0.0403,-0.0454,-0.0454,-0.0454,-0.0454,-0.0535,-0.0538,-0.0541,-0.0555,0,0,-0.055,-0.0551,0,0,0,0,0,0,0,0,-0.0279,-0.0285,-0.0338,-0.0343,-0.0348,-0.0416,-0.0403,-0.0453,-0.0453,-0.0414,-0.0454,-0.0454,-0.0495,-0.0501,-0.0518,-0.0558,-0.0562,-0.055,-0.0552,-0.0553,-0.0554,0,0,0,0,0,0,0,-0.0274,-0.0281,-0.0343,-0.034,-0.0345,-0.0377,-0.0385,-0.0413,-0.0451,-0.0417,-0.0421,-0.0432,-0.0497,-0.0515,-0.052,-0.0563,-0.055,-0.0553,-0.0555,-0.0556,-0.064,-0.0641,0,0,0,0,0,0,-0.0261,-0.0277,-0.034,-0.0346,-0.0314,-0.0378,-0.0387,-0.0393,-0.0451,-0.0461,-0.0432,-0.0434,-0.051,-0.0517,-0.0523,-0.0537,-0.0553,-0.0556,-0.0558,-0.064,-0.064,-0.0641,0,0,0,0,0,0,-0.0259,-0.0265,-0.0336,-0.0314,-0.0326,-0.0378,-0.0386,-0.0395,-0.0413,-0.0463,-0.0472,-0.044,-0.051,-0.0519,-0.055,-0.0541,-0.0558,-0.056,-0.0639,-0.064,-0.0641,-0.0568,0,0,0,0,0,0,-0.0256,-0.0264,-0.026,-0.0313,-0.0326,-0.0354,-0.0386,-0.0397,-0.0419,-0.0423,-0.0472,-0.0481,-0.0511,-0.0545,-0.0553,-0.0545,-0.0563,-0.0639,-0.064,-0.064,-0.057,-0.0566,-0.0562,0,0,0,0,0,-0.0252,-0.0244,-0.0259,-0.0267,-0.0321,-0.0353,-0.0362,-0.0401,-0.0419,-0.0419,-0.046,-0.0479,-0.0555,-0.0547,-0.0557,-0.055,-0.0638,-0.0639,-0.064,-0.0571,-0.0566,-0.0563,0,0,0,0,0,0,-0.0204,-0.025,-0.0268,-0.0273,-0.0305,-0.0362,-0.0365,-0.0396,-0.043,-0.0432,-0.0482,-0.0493,-0.0517,-0.0548,-0.0538,-0.058,-0.0601,-0.0604,-0.0545,-0.0541,-0.0538,-0.0507,-0.0565,0,0,0,0,0,-0.0192,-0.0198,-0.0247,-0.0249,-0.0262,-0.0313,-0.0331,-0.0356,-0.0396,-0.0412,-0.0449,-0.0492,-0.0529,-0.0545,-0.058,-0.0599,-0.0616,-0.0604,-0.06,-0.0597,-0.058,-0.0609,-0.0606,-0.0644,-0.0644,-0.0644,0,0,-0.0175,-0.02,-0.0204,-0.0239,-0.0267,-0.0275,-0.0324,-0.0342,-0.0349,-0.0414,-0.043,-0.0478,-0.0533,-0.0556,-0.057,-0.0578,-0.0595,-0.0598,-0.0594,-0.0579,-0.061,-0.0606,-0.0602,-0.0644,-0.0644,-0.0644,0,0,-0.0139,-0.0163,-0.0154,-0.0177,-0.0211,-0.0242,-0.0244,-0.0295,-0.0315,-0.0342,-0.0393,-0.0433,-0.0487,-0.0524,-0.0552,-0.055,-0.0576,-0.0567,-0.0519,-0.0548,-0.0544,-0.0541,-0.0548,-0.0546,-0.0563,-0.0563,-0.0563,0,-0.0114,-0.0113,-0.0156,-0.0152,-0.0163,-0.0222,-0.0212,-0.0242,-0.0296,-0.0305,-0.0334,-0.0419,-0.047,-0.05,-0.0508,-0.0538,-0.0553,-0.0527,-0.054,-0.0538,-0.0536,-0.0543,-0.0542,-0.056,-0.056,-0.056,-0.0561,0,-0.0075,-0.0073,-0.0069,-0.0083,-0.0098,-0.01,-0.0144,-0.0156,-0.0192,-0.0228,-0.0264,-0.0341,-0.0386,-0.042,-0.0466,-0.0482,-0.0495,-0.053,-0.0542,-0.0527,-0.0537,-0.0537,-0.0555,-0.0556,-0.0557,-0.0558,0,0,-0.002,-0.0036,-0.0034,-0.0025,-0.006,-0.0065,-0.0069,-0.0089,-0.0079,-0.0146,-0.0142,-0.0237,-0.0279,-0.0313,-0.0379,-0.0416,-0.0427,-0.0463,-0.0466,-0.0451,-0.0469,-0.0469,-0.0469,-0.0463,-0.0463,-0.0463,-0.0477,0,0.0025,0.0052,0.0029,0.0057,0.0067,0.0025,0.003,0.0005,-0.0025,-0.0034,-0.012,-0.0149,-0.0238,-0.0259,-0.0309,-0.0392,-0.0425,-0.0418,-0.0501,-0.0503,-0.049,-0.0469,-0.0459,-0.047,-0.0477,-0.0477,-0.0477,0,0.0074,0.0084,0.0122,0.0133,0.0136,0.0147,0.0156,0.0151,0.0119,0.0094,0.0049,-0.0014,-0.0078,-0.0159,-0.0276,-0.0266,-0.0357,-0.043,-0.0433,-0.0454,-0.0502,-0.0491,-0.047,-0.0654,-0.0478,-0.0478,-0.0478,0,0.0134,0.0152,0.0188,0.0188,0.019,0.021,0.0211,0.0195,0.0215,0.0179,0.0194,0.01,0.0074,-0.0057,-0.0207,-0.024,-0.0326,-0.0391,-0.0474,-0.0474,-0.0493,-0.0495,-0.0642,-0.0472,-0.0472,-0.0472,-0.0472,0,0.0189,0.0218,0.0224,0.0243,0.03,0.0276,0.0336,0.032,0.0332,0.0387,0.0267,0.0297,0.0097,0.0022,-0.0144,-0.0286,-0.0275,-0.0448,-0.0476,-0.0467,-0.0467,-0.0649,-0.077,-0.0472,-0.0472,-0.0472,-0.0472,0,0.0248,0.0247,0.0293,0.0315,0.033,0.037,0.0423,0.0473,0.0459,0.0534,0.0531,0.0461,0.0367,0.0171,-0.0017,-0.0178,-0.0441,-0.0398,-0.036,-0.0384,-0.0644,-0.0761,-0.0936,-0.1006,-0.0488,-0.0488,-0.0488,0,0.0277,0.0308,0.0355,0.0397,0.0413,0.0471,0.0525,0.0533,0.0604,0.0652,0.0711,0.0641,0.0628,0.0352,0.0054,-0.0211,-0.0419,-0.0394,-0.0472,-0.0641,-0.0792,-0.0883,-0.0936,-0.0466,-0.0466,-0.0466,-0.0466,0,0.0339,0.0357,0.0398,0.0485,0.0551,0.063,0.0714,0.0792,0.0838,0.091,0.1005,0.0998,0.0745,0.0492,0.0113,-0.0098,-0.0528,-0.0399,-0.0594,-0.0796,-0.0885,-0.0971,-0.0465,-0.0465,-0.0465,-0.0465,-0.0465,-0.0465,0.0392,0.0436,0.0497,0.0585,0.0667,0.0788,0.0879,0.0992,0.1125,0.1256,0.1239,0.126,0.0865,0.0354,0.0057,-0.0497,-0.0525,-0.0687,-0.0812,-0.0885,-0.0968,-0.0442,-0.0467,-0.0467,-0.0467,-0.0467,-0.0467,0,0.0459,0.0509,0.0595,0.0704,0.0818,0.0841,0.1011,0.1119,0.1306,0.1416,0.1497,0.131,0.082,0.0301,-0.0431,-0.0832,-0.0993,-0.1071,-0.1218,-0.1252,-0.0796,-0.0809,-0.0884,-0.0883,-0.0883,-0.0883,-0.0883,-0.0883,0.0498,0.0589,0.0632,0.0817,0.0904,0.1067,0.1174,0.1334,0.145,0.1582,0.1595,0.1563,0.1166,-0.0149,-0.1043,-0.1258,-0.1559,-0.1636,-0.1771,-0.1495,-0.1469,-0.1445,-0.1485,-0.17,-0.1701,-0.216,-0.2165,-0.2169]}],[{"header":{"parameterUnit":"m.s-1","parameterCategory":2,"la1":30.2991,"la2":30.254,"lo1":-89.0895,"lo2":-89.0444,"dy":0.0017,"dx":0.0017,"nx":28,"ny":28,"refTime":"2025-04-14T03:00:00:Z","depth":"2","parameterNumber":2,"parameterNumberName":"U-component_of_CURRENTS"},"data":[0,0,0,0,0,0,0,0,0,0,0,0,0,0,0,0,0,0,0,0,0,0,0,0,0,0,0,0,0,0,0,0,0,0,0,0,0,0,0,0,0,0,0,0,0,0,0,0,0,0,0,0,0,0,0,0,0,0,0.2524,0.2525,0,0.2548,0.2548,0.2548,0.2584,0.2585,0.2586,0.2586,0.2624,0.2624,0.2624,0,0,0,0,0,0,0,0,0,0,0,0,0,0.2472,0.2473,0.2524,0.2525,0.2525,0.2548,0.2548,0.2548,0.2584,0.2585,0.2586,0.2587,0.2624,0.2624,0.2624,0,0,0,0,0,0,0,0,0,0,0,0,0,0.2494,0.2473,0.2524,0.2546,0.2549,0.2548,0.2548,0.2548,0.2584,0.2585,0.2586,0.2587,0.2624,0.2624,0.2625,0.2606,0,0,0.2626,0.2626,0,0,0,0,0,0,0,0,0.2493,0.2496,0.2543,0.2545,0.2547,0.2565,0.2543,0.2569,0.2584,0.257,0.2586,0.2588,0.2605,0.2607,0.2608,0.2608,0.261,0.2626,0.2626,0.2627,0.2627,0,0,0,0,0,0,0,0.2492,0.2495,0.2533,0.2543,0.2546,0.2542,0.2546,0.2548,0.2581,0.2571,0.2574,0.2577,0.2606,0.2607,0.2609,0.261,0.2626,0.2627,0.2627,0.2627,0.269,0.2692,0,0,0,0,0,0,0.2491,0.2494,0.2532,0.2534,0.2523,0.2542,0.2547,0.2558,0.2581,0.2585,0.2576,0.2579,0.2606,0.2609,0.2611,0.2675,0.2627,0.2627,0.2627,0.2689,0.2691,0.2692,0,0,0,0,0,0,0.249,0.2494,0.2531,0.2514,0.2519,0.2542,0.2553,0.2557,0.2574,0.2585,0.259,0.259,0.2607,0.261,0.2634,0.2673,0.2627,0.2628,0.2687,0.269,0.2692,0.2749,0,0,0,0,0,0,0.2488,0.2494,0.2495,0.2515,0.252,0.255,0.2552,0.2557,0.2573,0.2577,0.2598,0.2601,0.2608,0.2633,0.2635,0.2673,0.2628,0.2686,0.2688,0.2691,0.2745,0.2752,0.2759,0,0,0,0,0,0.2487,0.2485,0.2495,0.2499,0.2523,0.2551,0.2554,0.2572,0.2573,0.2588,0.2602,0.2602,0.2651,0.2634,0.2635,0.2675,0.2684,0.2688,0.2691,0.2742,0.2751,0.2758,0,0,0,0,0,0,0.2465,0.2489,0.25,0.2507,0.2537,0.2558,0.2565,0.2576,0.2596,0.2601,0.2608,0.2613,0.2656,0.265,0.2631,0.2702,0.2672,0.2675,0.2711,0.2719,0.2726,0.2733,0.2629,0,0,0,0,0,0.2459,0.2465,0.2497,0.2505,0.252,0.2543,0.2552,0.2572,0.2593,0.2603,0.2618,0.2637,0.2665,0.2679,0.2698,0.2722,0.2745,0.2752,0.2759,0.2765,0.2773,0.2849,0.2864,0.2702,0.2702,0.2702,0,0,0.2452,0.2466,0.247,0.2501,0.2521,0.2548,0.2552,0.2579,0.2605,0.2602,0.2637,0.266,0.2677,0.272,0.2739,0.2722,0.2822,0.2769,0.2774,0.2779,0.2854,0.287,0.2884,0.2705,0.2704,0.2704,0,0,0.2442,0.246,0.2463,0.2492,0.2528,0.2551,0.2563,0.2599,0.2621,0.2651,0.267,0.2714,0.2735,0.2773,0.2789,0.2839,0.2858,0.285,0.289,0.2964,0.2978,0.2991,0.3039,0.3055,0.2852,0.2852,0.2852,0,0.2427,0.2448,0.247,0.2491,0.2518,0.2556,0.2583,0.2609,0.2649,0.268,0.2671,0.2755,0.2763,0.284,0.2861,0.2857,0.2895,0.2857,0.2975,0.2988,0.3,0.3046,0.3063,0.2855,0.2854,0.2854,0.2854,0,0.2429,0.2451,0.2462,0.2503,0.2536,0.2569,0.2617,0.2655,0.2682,0.2718,0.2797,0.2821,0.2878,0.2892,0.2887,0.2988,0.2986,0.2977,0.2955,0.302,0.3063,0.3081,0.2859,0.2858,0.2857,0.2856,0,0,0.2382,0.2447,0.2452,0.2483,0.2551,0.258,0.2636,0.2707,0.2761,0.2805,0.2882,0.2931,0.2965,0.2986,0.3006,0.3063,0.3171,0.3058,0.3061,0.3108,0.3334,0.3233,0.3241,0.3195,0.3198,0.3201,0.3329,0,0.238,0.2416,0.2457,0.2512,0.2544,0.2612,0.2667,0.2739,0.28,0.2885,0.2943,0.3021,0.2996,0.3043,0.3098,0.3166,0.3221,0.3137,0.3262,0.3265,0.317,0.3259,0.3012,0.3097,0.3346,0.3349,0.3351,0,0.2372,0.24,0.2444,0.2535,0.2558,0.2602,0.2718,0.2777,0.2904,0.2958,0.3051,0.3104,0.3211,0.3172,0.3317,0.3272,0.3306,0.334,0.3346,0.3243,0.3196,0.3073,0.3119,0.338,0.3377,0.3375,0.3373,0,0.2331,0.24,0.2435,0.2464,0.2564,0.261,0.268,0.2801,0.2879,0.3024,0.3099,0.3219,0.3302,0.3374,0.3432,0.3398,0.358,0.354,0.3478,0.3471,0.3278,0.3247,0.3639,0.3638,0.3638,0.3638,0.3637,0,0.2316,0.2348,0.242,0.2441,0.251,0.2595,0.2691,0.2783,0.2932,0.3041,0.3141,0.3242,0.3362,0.3467,0.3493,0.3545,0.3634,0.3507,0.351,0.3288,0.3258,0.3508,0.3491,0.3642,0.3641,0.364,0.364,0,0.2272,0.2316,0.2361,0.2454,0.249,0.2543,0.2695,0.2773,0.2917,0.3067,0.3124,0.3308,0.3442,0.353,0.3667,0.3622,0.3679,0.3667,0.3384,0.3349,0.3502,0.3487,0.362,0.3618,0.3616,0.3615,0.3613,0,0.2252,0.2267,0.235,0.2385,0.243,0.2519,0.2591,0.2749,0.2843,0.3091,0.3164,0.3352,0.3428,0.3581,0.3594,0.3634,0.3682,0.3386,0.3259,0.3517,0.3507,0.3495,0.3482,0.3033,0.3027,0.3022,0.3018,0,0.2212,0.2238,0.2273,0.2342,0.2408,0.2483,0.2601,0.2665,0.2862,0.2972,0.3129,0.3211,0.3376,0.3308,0.3369,0.3353,0.3356,0.3284,0.3676,0.3059,0.2969,0.2957,0.2963,0.2974,0.2979,0.2982,0.2984,0.2986,0.2173,0.2181,0.2227,0.2291,0.2367,0.2432,0.2452,0.2564,0.2667,0.2797,0.2968,0.2988,0.3062,0.3019,0.2965,0.2945,0.3157,0.2997,0.3011,0.303,0.2923,0.2832,0.2792,0.2795,0.2797,0.28,0.2802,0,0.2094,0.2122,0.2182,0.2237,0.2275,0.2355,0.2445,0.242,0.2446,0.2592,0.2659,0.2489,0.2465,0.2548,0.2458,0.2463,0.2428,0.2354,0.2282,0.233,0.2371,0.2226,0.1913,0.1909,0.1906,0.1903,0,0,0.2049,0.2052,0.2081,0.2112,0.2166,0.2159,0.217,0.2144,0.2191,0.2159,0.2161,0.2344,0.2461,0.2134,0.2123,0.1996,0.2136,0.1926,0.2651,0.2614,0.2651,0.2769,0.2604,0,0,0,0,0]},{"header":{"parameterUnit":"m.s-1","parameterCategory":2,"la1":30.2991,"la2":30.254,"lo1":-89.0895,"lo2":-89.0444,"dy":0.0017,"dx":0.0017,"nx":28,"ny":28,"refTime":"2025-04-14T03:00:00:Z","depth":"2","parameterNumber":3,"parameterNumberName":"V-component_of_CURRENTS"},"data":[0,0,0,0,0,0,0,0,0,0,0,0,0,0,0,0,0,0,0,0,0,0,0,0,0,0,0,0,0,0,0,0,0,0,0,0,0,0,0,0,0,0,0,0,0,0,0,0,0,0,0,0,0,0,0,0,0,0,-0.0074,-0.0074,0,-0.0144,-0.0144,-0.0145,-0.0213,-0.0214,-0.0215,-0.0215,-0.0308,-0.031,-0.0312,0,0,0,0,0,0,0,0,0,0,0,0,0,-0.0005,-0.0006,-0.0073,-0.0074,-0.0075,-0.0143,-0.0144,-0.0146,-0.0213,-0.0214,-0.0215,-0.0216,-0.0308,-0.031,-0.0312,0,0,0,0,0,0,0,0,0,0,0,0,0,-0.0051,-0.0006,-0.0073,-0.0116,-0.0121,-0.0143,-0.0145,-0.0146,-0.0213,-0.0214,-0.0215,-0.0216,-0.0307,-0.031,-0.0312,-0.0305,0,0,-0.032,-0.0322,0,0,0,0,0,0,0,0,-0.0049,-0.0054,-0.0109,-0.0113,-0.0118,-0.017,-0.0154,-0.02,-0.0212,-0.0179,-0.0215,-0.0217,-0.0263,-0.0269,-0.0281,-0.031,-0.0314,-0.0321,-0.0322,-0.0323,-0.0324,0,0,0,0,0,0,0,-0.0045,-0.0051,-0.0102,-0.011,-0.0115,-0.0134,-0.0142,-0.0163,-0.0215,-0.0182,-0.0187,-0.0192,-0.0266,-0.0278,-0.0284,-0.0315,-0.0321,-0.0323,-0.0325,-0.0326,-0.04,-0.04,0,0,0,0,0,0,-0.0033,-0.0048,-0.01,-0.0104,-0.0085,-0.0134,-0.0143,-0.0153,-0.0214,-0.0224,-0.0191,-0.0195,-0.0273,-0.028,-0.0287,-0.0311,-0.0323,-0.0326,-0.0327,-0.0399,-0.04,-0.04,0,0,0,0,0,0,-0.0031,-0.0037,-0.0097,-0.0077,-0.0086,-0.0134,-0.0144,-0.0154,-0.0174,-0.0221,-0.0232,-0.0203,-0.0274,-0.0283,-0.031,-0.0314,-0.0327,-0.0329,-0.0399,-0.04,-0.04,-0.034,0,0,0,0,0,0,-0.0029,-0.0036,-0.0034,-0.0076,-0.0086,-0.0115,-0.0144,-0.0154,-0.0175,-0.0181,-0.0234,-0.0243,-0.0276,-0.0306,-0.0313,-0.0318,-0.0331,-0.0398,-0.0399,-0.04,-0.0341,-0.0338,-0.0336,0,0,0,0,0,-0.0027,-0.002,-0.0034,-0.004,-0.0084,-0.0115,-0.0122,-0.0161,-0.0174,-0.0183,-0.0216,-0.0242,-0.0317,-0.0308,-0.0316,-0.0322,-0.0398,-0.0399,-0.04,-0.0342,-0.0339,-0.0336,0,0,0,0,0,0,0.0009,-0.0027,-0.0044,-0.0049,-0.0081,-0.0126,-0.013,-0.0156,-0.0188,-0.0191,-0.0237,-0.0249,-0.0278,-0.0307,-0.0296,-0.0348,-0.0365,-0.0368,-0.0319,-0.0316,-0.0313,-0.0281,-0.0334,0,0,0,0,0,0.002,0.0015,-0.0027,-0.0031,-0.0043,-0.0084,-0.0099,-0.0126,-0.016,-0.0176,-0.0213,-0.0253,-0.0286,-0.0305,-0.0339,-0.0357,-0.0374,-0.0371,-0.0368,-0.0365,-0.0346,-0.0378,-0.0375,-0.0403,-0.0403,-0.0403,0,0,0.0034,0.0014,0.0011,-0.0023,-0.0047,-0.0055,-0.0097,-0.0116,-0.0122,-0.0179,-0.0195,-0.0241,-0.0289,-0.0315,-0.0332,-0.034,-0.0367,-0.0366,-0.0363,-0.0345,-0.0378,-0.0375,-0.0373,-0.0404,-0.0404,-0.0404,0,0,0.0062,0.0041,0.0047,0.0026,-0.0006,-0.0031,-0.0035,-0.0081,-0.0101,-0.0123,-0.0168,-0.0208,-0.0258,-0.0293,-0.0316,-0.0316,-0.035,-0.034,-0.0298,-0.0329,-0.0326,-0.0324,-0.0338,-0.0337,-0.0339,-0.0339,-0.0339,0,0.0083,0.008,0.0044,0.0044,0.0037,-0.0016,-0.001,-0.0034,-0.0084,-0.0091,-0.0121,-0.0195,-0.0243,-0.0268,-0.0278,-0.0306,-0.0326,-0.0303,-0.0323,-0.0321,-0.032,-0.0335,-0.0335,-0.0336,-0.0337,-0.0337,-0.0337,0,0.011,0.0111,0.0115,0.01,0.0087,0.0082,0.0045,0.0031,0.0001,-0.003,-0.0065,-0.0131,-0.0174,-0.0207,-0.0243,-0.0264,-0.028,-0.0313,-0.0323,-0.0313,-0.033,-0.0331,-0.0332,-0.0333,-0.0334,-0.0335,0,0,0.0152,0.0139,0.0141,0.0151,0.0118,0.0113,0.0111,0.0093,0.0106,0.0039,0.0046,-0.0038,-0.0082,-0.0111,-0.017,-0.0205,-0.0224,-0.0252,-0.0255,-0.025,-0.0281,-0.0292,-0.0295,-0.0264,-0.0264,-0.0264,-0.0294,0,0.0187,0.0209,0.019,0.0216,0.0225,0.0191,0.02,0.0177,0.015,0.0142,0.0066,0.0039,-0.0043,-0.0064,-0.0112,-0.0189,-0.0226,-0.0212,-0.0305,-0.0307,-0.0306,-0.0296,-0.0276,-0.0302,-0.0296,-0.0296,-0.0296,0,0.0221,0.0233,0.0264,0.0285,0.0288,0.0297,0.0312,0.031,0.0282,0.0261,0.0215,0.0155,0.0095,0.0022,-0.0093,-0.0082,-0.0174,-0.024,-0.0244,-0.027,-0.032,-0.0315,-0.0304,-0.0298,-0.0298,-0.0298,-0.0298,0,0.027,0.029,0.0322,0.0325,0.0334,0.0353,0.0357,0.0344,0.0369,0.0334,0.0348,0.0257,0.0231,0.0103,-0.0043,-0.007,-0.016,-0.0217,-0.0311,-0.0313,-0.032,-0.0322,-0.03,-0.03,-0.03,-0.03,-0.03,0,0.0316,0.0343,0.0352,0.037,0.0427,0.0408,0.0467,0.0457,0.0472,0.0525,0.041,0.0438,0.0249,0.017,0.0011,-0.0136,-0.0123,-0.0288,-0.032,-0.03,-0.0299,-0.032,-0.0322,-0.0301,-0.0301,-0.0301,-0.03,0,0.0363,0.0364,0.0408,0.0434,0.0451,0.0488,0.0547,0.0597,0.0587,0.0658,0.0654,0.0586,0.0481,0.0292,0.0107,-0.0044,-0.0202,-0.0265,-0.0218,-0.0244,-0.0348,-0.0347,-0.0368,-0.0369,-0.0369,-0.037,-0.037,0,0.0387,0.0414,0.0462,0.0505,0.0522,0.0578,0.0634,0.065,0.072,0.0763,0.0818,0.0736,0.0697,0.042,0.0142,-0.0122,-0.0176,-0.028,-0.0341,-0.0325,-0.0354,-0.0352,-0.035,-0.0327,-0.0327,-0.0327,-0.0327,0,0.0441,0.0456,0.0497,0.0582,0.0648,0.073,0.0813,0.0891,0.0939,0.0998,0.1069,0.1034,0.0773,0.0515,0.0147,-0.0042,-0.024,-0.0289,-0.0278,-0.0314,-0.029,-0.0317,-0.0316,-0.0327,-0.0327,-0.0327,-0.0327,-0.0327,0.0486,0.0528,0.0587,0.0674,0.0757,0.0878,0.0968,0.1067,0.1187,0.1283,0.1252,0.1199,0.0902,0.0427,0.011,-0.0232,-0.0228,-0.036,-0.0359,-0.0358,-0.0348,-0.0327,-0.0368,-0.0368,-0.0368,-0.0369,-0.0369,0,0.0546,0.0595,0.0679,0.0789,0.0901,0.0928,0.1095,0.1187,0.134,0.1391,0.1422,0.1145,0.0836,0.0485,-0.0014,-0.0313,-0.0352,-0.0413,-0.0393,-0.039,-0.0388,-0.038,-0.0409,-0.041,-0.0411,-0.0412,0,0,0.0582,0.0668,0.0711,0.0895,0.0983,0.1143,0.1247,0.1366,0.1436,0.1487,0.1449,0.1352,0.0936,0.0573,0.0166,-0.0119,-0.0193,-0.0186,-0.0122,-0.0049,-0.0044,-0.0327,-0.0307,0,0,0,0,0]}],[{"header":{"parameterUnit":"m.s-1","parameterCategory":2,"la1":30.2991,"la2":30.254,"lo1":-89.0895,"lo2":-89.0444,"dy":0.0017,"dx":0.0017,"nx":28,"ny":28,"refTime":"2025-04-14T03:00:00:Z","depth":"4","parameterNumber":2,"parameterNumberName":"U-component_of_CURRENTS"},"data":[0,0,0,0,0,0,0,0,0,0,0,0,0,0,0,0,0,0,0,0,0,0,0,0,0,0,0,0,0,0,0,0,0,0,0,0,0,0,0,0,0,0,0,0,0,0,0,0,0,0,0,0,0,0,0,0,0,0,0.1406,0.1407,0,0.1456,0.1456,0.1456,0.1521,0.1522,0.1523,0.1524,0.1569,0.1569,0.1569,0,0,0,0,0,0,0,0,0,0,0,0,0,0.1311,0.1313,0.1406,0.1407,0.1407,0.1456,0.1456,0.1456,0.152,0.1522,0.1524,0.1525,0.1569,0.1569,0.1569,0,0,0,0,0,0,0,0,0,0,0,0,0,0.1353,0.1313,0.1406,0.1447,0.1451,0.1455,0.1456,0.1457,0.152,0.1522,0.1524,0.1526,0.1569,0.1569,0.1569,0.153,0,0,0.1569,0.1569,0,0,0,0,0,0,0,0,0.1351,0.1356,0.144,0.1444,0.1449,0.1486,0.1439,0.1482,0.152,0.1491,0.1524,0.1527,0.1541,0.1543,0.1545,0.1532,0.1534,0.1569,0.1569,0.1569,0.1569,0,0,0,0,0,0,0,0.1348,0.1354,0.1423,0.1441,0.1446,0.1444,0.1453,0.1447,0.1503,0.1494,0.1499,0.1508,0.1543,0.1545,0.1546,0.1535,0.1569,0.1569,0.1568,0.1568,0.1638,0.164,0,0,0,0,0,0,0.1348,0.1352,0.1422,0.1425,0.1406,0.1445,0.1454,0.147,0.1503,0.1511,0.1507,0.1511,0.1544,0.1546,0.1548,0.1627,0.1569,0.1568,0.1568,0.1637,0.1639,0.1641,0,0,0,0,0,0,0.1346,0.1354,0.142,0.1391,0.14,0.1445,0.1462,0.147,0.1511,0.1513,0.1521,0.1544,0.1545,0.1548,0.1586,0.1625,0.1568,0.1568,0.1634,0.1637,0.164,0.1707,0,0,0,0,0,0,0.1343,0.1353,0.1385,0.1391,0.1401,0.1455,0.1461,0.147,0.1512,0.1519,0.1546,0.155,0.1547,0.1587,0.1586,0.1624,0.1568,0.1632,0.1636,0.1639,0.1702,0.1712,0.172,0,0,0,0,0,0.1339,0.137,0.1386,0.1396,0.1437,0.1456,0.1462,0.1498,0.1512,0.1539,0.1561,0.1551,0.1609,0.1588,0.1587,0.1626,0.163,0.1635,0.1639,0.1699,0.171,0.1719,0,0,0,0,0,0,0.1348,0.138,0.1397,0.1439,0.1463,0.1469,0.15,0.1514,0.1549,0.1569,0.1565,0.1571,0.1619,0.1612,0.1588,0.1658,0.1621,0.1626,0.1667,0.1678,0.1686,0.1673,0.1568,0,0,0,0,0,0.1362,0.1397,0.1418,0.1455,0.1469,0.1487,0.1507,0.1531,0.1552,0.1572,0.1588,0.161,0.1627,0.1647,0.1657,0.1687,0.1689,0.1716,0.1725,0.1732,0.1723,0.178,0.1793,0.1655,0.1655,0.1655,0,0,0.1371,0.1397,0.1417,0.146,0.1478,0.15,0.1505,0.1547,0.1576,0.1567,0.1622,0.1636,0.1641,0.1684,0.1706,0.169,0.1773,0.1737,0.1743,0.173,0.1786,0.1799,0.1811,0.1658,0.1657,0.1657,0,0,0.1392,0.1434,0.1465,0.1486,0.153,0.1539,0.1558,0.1588,0.1622,0.1665,0.1671,0.171,0.1736,0.1751,0.1758,0.1817,0.1813,0.1832,0.187,0.1927,0.1938,0.1948,0.1969,0.198,0.1842,0.1842,0.1842,0,0.1409,0.1449,0.1477,0.1505,0.1524,0.1557,0.1582,0.1614,0.1658,0.1681,0.17,0.1752,0.1764,0.1802,0.1834,0.1836,0.1858,0.1829,0.1938,0.1948,0.1957,0.1975,0.1987,0.1846,0.1846,0.1845,0.1845,0,0.1435,0.148,0.1498,0.1544,0.1566,0.16,0.1633,0.1681,0.1722,0.1742,0.1806,0.1831,0.1865,0.1882,0.1876,0.1948,0.1939,0.1938,0.1909,0.1975,0.199,0.2001,0.1851,0.185,0.1849,0.1848,0,0,0.1435,0.1507,0.1516,0.1541,0.1594,0.1608,0.1667,0.1714,0.1759,0.1815,0.1873,0.1909,0.1933,0.1942,0.1955,0.2001,0.2091,0.2007,0.2008,0.2021,0.2206,0.2072,0.207,0.2125,0.2127,0.2129,0.219,0,0.1452,0.1511,0.1539,0.1585,0.1611,0.1654,0.1695,0.1745,0.1804,0.1874,0.1915,0.1977,0.1954,0.2003,0.2041,0.2079,0.2124,0.2073,0.2143,0.2144,0.2013,0.208,0.2136,0.2198,0.2201,0.2202,0.2204,0,0.1459,0.1503,0.1556,0.1609,0.1623,0.1657,0.1731,0.1777,0.1869,0.1932,0.1998,0.2033,0.2102,0.2098,0.2174,0.215,0.2185,0.2205,0.2209,0.2061,0.203,0.2119,0.2223,0.2222,0.222,0.2219,0.2218,0,0.1429,0.1503,0.1549,0.1567,0.1637,0.1675,0.1719,0.1797,0.1843,0.1989,0.2051,0.2121,0.2194,0.2236,0.2262,0.2248,0.2344,0.2331,0.2232,0.2223,0.2294,0.2282,0.2402,0.2402,0.2402,0.2402,0.2402,0,0.1413,0.1451,0.1548,0.1569,0.1621,0.1671,0.1739,0.1812,0.1914,0.1968,0.2082,0.2139,0.2243,0.2292,0.2302,0.2283,0.2379,0.2238,0.2235,0.232,0.2311,0.2301,0.2289,0.2404,0.2404,0.2403,0.2403,0,0.136,0.1429,0.1484,0.1578,0.1608,0.1646,0.1741,0.1784,0.1909,0.1999,0.2055,0.2186,0.2262,0.2312,0.24,0.2328,0.2334,0.2312,0.2387,0.2388,0.2163,0.2154,0.22,0.2196,0.2193,0.219,0.2187,0,0.1335,0.1365,0.1479,0.1506,0.1554,0.1627,0.1666,0.1784,0.1831,0.199,0.2019,0.2151,0.2224,0.2217,0.2296,0.2309,0.229,0.2271,0.2214,0.2152,0.2146,0.2142,0.2137,0.2182,0.2181,0.218,0.2179,0,0.128,0.134,0.1388,0.1452,0.1504,0.1544,0.1618,0.164,0.1771,0.1901,0.1952,0.1996,0.2087,0.2138,0.2177,0.2176,0.2263,0.2234,0.2241,0.2187,0.213,0.2127,0.2126,0.2167,0.2169,0.217,0.2171,0,0.1242,0.1262,0.1333,0.137,0.1433,0.1435,0.1487,0.1538,0.1595,0.177,0.1784,0.1928,0.2063,0.207,0.209,0.2093,0.2065,0.1989,0.2008,0.2023,0.1936,0.1836,0.1783,0,0,0,0,0,0.1188,0.1196,0.1232,0.1259,0.1317,0.1349,0.1434,0.1489,0.1626,0.1619,0.1693,0.1767,0.1826,0.1899,0.187,0.2013,0.2069,0.1969,0.199,0.21,0.2114,0.2029,0,0,0,0,0,0,0.1148,0.1189,0.1199,0.1161,0.1162,0.1199,0.1255,0.1339,0.1346,0.1499,0.1545,0.1664,0.1752,0.183,0.1839,0.186,0.1837,0.2061,0.2057,0.2092,0.2105,0.2116,0.2033,0,0,0,0,0]},{"header":{"parameterUnit":"m.s-1","parameterCategory":2,"la1":30.2991,"la2":30.254,"lo1":-89.0895,"lo2":-89.0444,"dy":0.0017,"dx":0.0017,"nx":28,"ny":28,"refTime":"2025-04-14T03:00:00:Z","depth":"4","parameterNumber":3,"parameterNumberName":"V-component_of_CURRENTS"},"data":[0,0,0,0,0,0,0,0,0,0,0,0,0,0,0,0,0,0,0,0,0,0,0,0,0,0,0,0,0,0,0,0,0,0,0,0,0,0,0,0,0,0,0,0,0,0,0,0,0,0,0,0,0,0,0,0,0,0,0.0132,0.0132,0,0.0087,0.0086,0.0086,0.0057,0.0056,0.0056,0.0056,0.003,0.0029,0.0029,0,0,0,0,0,0,0,0,0,0,0,0,0,0.0185,0.0185,0.0132,0.0132,0.0131,0.0087,0.0086,0.0086,0.0057,0.0056,0.0056,0.0056,0.003,0.0029,0.0028,0,0,0,0,0,0,0,0,0,0,0,0,0,0.0154,0.0184,0.0132,0.0111,0.0109,0.0087,0.0086,0.0086,0.0057,0.0056,0.0056,0.0056,0.003,0.0029,0.0028,0.0029,0,0,0.0026,0.0026,0,0,0,0,0,0,0,0,0.0155,0.0152,0.0115,0.0113,0.011,0.0077,0.0095,0.0067,0.0057,0.0077,0.0056,0.0056,0.0048,0.0045,0.0037,0.0027,0.0026,0.0026,0.0025,0.0025,0.0025,0,0,0,0,0,0,0,0.0158,0.0153,0.0114,0.0114,0.0111,0.0101,0.0097,0.009,0.0064,0.0075,0.0073,0.0068,0.0046,0.0038,0.0036,0.0026,0.0026,0.0025,0.0025,0.0024,0.0015,0.0016,0,0,0,0,0,0,0.0164,0.0155,0.0116,0.0113,0.0133,0.0101,0.0095,0.0088,0.0064,0.006,0.0068,0.0066,0.0039,0.0037,0.0035,0.0041,0.0025,0.0024,0.0024,0.0015,0.0015,0.0016,0,0,0,0,0,0,0.0165,0.0161,0.0117,0.0133,0.0127,0.01,0.0092,0.0087,0.0078,0.0059,0.0055,0.0064,0.0039,0.0036,0.0033,0.004,0.0024,0.0023,0.0015,0.0015,0.0016,0.0049,0,0,0,0,0,0,0.0167,0.0161,0.016,0.0134,0.0126,0.0107,0.0092,0.0087,0.0076,0.0074,0.0054,0.0051,0.0039,0.0035,0.0033,0.0038,0.0023,0.0014,0.0015,0.0015,0.0047,0.005,0.0052,0,0,0,0,0,0.0169,0.0168,0.016,0.0155,0.0124,0.0107,0.0102,0.0082,0.0076,0.0073,0.0063,0.0052,0.0036,0.0034,0.0032,0.0037,0.0014,0.0015,0.0015,0.0046,0.0049,0.0052,0,0,0,0,0,0,0.0188,0.0164,0.0155,0.0145,0.0129,0.0102,0.0099,0.0085,0.0074,0.0074,0.0057,0.0053,0.0051,0.0041,0.004,0.0036,0.0023,0.0023,0.0047,0.005,0.0052,0.0063,0.0022,0,0,0,0,0,0.0193,0.0187,0.0161,0.0155,0.0148,0.0125,0.0116,0.0102,0.0088,0.0082,0.0069,0.0058,0.0051,0.0048,0.0038,0.0039,0.0015,0.004,0.0043,0.0045,0.0052,0.0021,0.0021,0.0018,0.0017,0.0017,0,0,0.02,0.0185,0.0182,0.0159,0.0146,0.0141,0.0119,0.0108,0.0107,0.0082,0.0082,0.0066,0.0053,0.0052,0.005,0.0045,0.0031,0.0046,0.0048,0.0054,0.0021,0.0022,0.0022,0.0018,0.0018,0.0018,0,0,0.0213,0.0199,0.0198,0.0188,0.0168,0.0154,0.0153,0.0128,0.0121,0.0115,0.01,0.0092,0.0077,0.0071,0.0066,0.0079,0.0044,0.0072,0.0097,0.0067,0.0067,0.0067,0.0025,0.002,0.0076,0.0076,0.0076,0,0.0222,0.0218,0.0196,0.0194,0.0194,0.0163,0.0169,0.0156,0.0134,0.0136,0.0119,0.0101,0.0088,0.0093,0.0095,0.0086,0.0056,0.0087,0.007,0.0069,0.0069,0.0026,0.0021,0.0078,0.0077,0.0077,0.0077,0,0.0232,0.0233,0.0234,0.0224,0.022,0.0219,0.0201,0.0198,0.0184,0.0169,0.0165,0.0141,0.0133,0.0124,0.0113,0.0108,0.0083,0.0075,0.0063,0.0071,0.0025,0.0019,0.008,0.0079,0.0079,0.0078,0,0,0.0244,0.0241,0.0244,0.0255,0.0238,0.024,0.0244,0.024,0.0253,0.0219,0.0228,0.0205,0.0185,0.0179,0.016,0.0135,0.0098,0.0105,0.0102,0.0064,0.0017,0.0003,-0.0006,0.0082,0.0082,0.0081,-0.0017,0,0.026,0.0272,0.0267,0.0291,0.0298,0.0288,0.03,0.0294,0.0283,0.0282,0.0249,0.0247,0.0208,0.0209,0.0174,0.0126,0.0086,0.0125,0.0014,0.001,-0.0002,-0.0011,0.008,-0.0022,-0.0023,-0.0024,-0.0025,0,0.0272,0.0281,0.0306,0.0336,0.0341,0.0353,0.0378,0.0385,0.0374,0.0368,0.0346,0.0313,0.028,0.0243,0.0145,0.0169,0.0094,0.0044,0.0039,0.0013,-0.0014,-0.003,-0.0036,-0.0035,-0.0034,-0.0034,-0.0033,0,0.0294,0.0315,0.0342,0.0348,0.0369,0.0391,0.0407,0.0411,0.0434,0.0423,0.043,0.0372,0.0352,0.0254,0.0141,0.0141,0.002,0.0008,-0.0082,-0.0085,-0.0057,-0.0056,-0.0074,-0.0074,-0.0074,-0.0074,-0.0073,0,0.0313,0.0337,0.0359,0.0374,0.0425,0.0427,0.0481,0.0489,0.0506,0.0533,0.0478,0.0475,0.0353,0.0266,0.0152,0.0016,0.0022,-0.0081,-0.0108,-0.0043,-0.0039,-0.0063,-0.006,-0.0077,-0.0077,-0.0076,-0.0075,0,0.0331,0.034,0.0379,0.0414,0.0436,0.0473,0.0538,0.0575,0.0583,0.0616,0.0615,0.0551,0.0437,0.0298,0.014,0.0042,-0.0089,-0.0145,-0.0072,-0.0093,-0.0181,-0.0175,-0.025,-0.0252,-0.0253,-0.0254,-0.0254,0,0.0338,0.0358,0.0414,0.0449,0.0471,0.053,0.0579,0.0614,0.0653,0.0657,0.0672,0.0579,0.0512,0.0283,0.0128,-0.0095,-0.0129,-0.0203,-0.0188,-0.0179,-0.0198,-0.0191,-0.0184,-0.0256,-0.0256,-0.0257,-0.0257,0,0.0358,0.0379,0.0414,0.0485,0.0544,0.0613,0.0678,0.0713,0.0747,0.0753,0.0721,0.0599,0.0467,0.0284,0.0109,-0.0051,-0.0153,-0.0215,-0.0214,-0.02,-0.0186,-0.0203,-0.0195,-0.0261,-0.026,-0.026,-0.026,0,0.038,0.0409,0.0458,0.0524,0.0602,0.0673,0.0705,0.0747,0.0784,0.0782,0.0763,0.0621,0.054,0.0305,0.0143,-0.0014,-0.0056,-0.0106,-0.0112,-0.0109,-0.0039,0.0,-0.0041,0,0,0,0,0,0.0399,0.0436,0.0496,0.057,0.0646,0.0695,0.0767,0.079,0.0817,0.0805,0.0788,0.0663,0.0428,0.0328,0.0169,0.0108,-0.0093,-0.0085,-0.0155,-0.0281,-0.0277,-0.0219,0,0,0,0,0,0,0.0414,0.0468,0.0497,0.0598,0.0658,0.0747,0.0797,0.0811,0.0804,0.0801,0.0683,0.0621,0.0396,0.0524,0.0168,0.0119,0.0051,-0.0193,-0.0197,-0.0283,-0.028,-0.0276,-0.0215,0,0,0,0,0]}]]